When you browse on this site, cookies collect data to enhance your experience and personalize the content and advertising you see.
Visit our Privacy Policy to learn more. By continuing to use the site, you agree to this use of cookies and data.
  • In Germany
  • List of Countries
  • For 7 days
  • Water Temperature
  • Weather Map
  • Weather Widgets
  • user-avatar
    Login

    Hourly Weather Tibissa

    Today, 31 May, Sunday

    Time Temperature Precipitation Wind Pressure Humidity
    00:00 +17°C° 0 mm 2 mps 684 mmHg 62%
    01:00 +18°C° 0 mm 1 mps 684 mmHg 63%
    02:00 +16°C° 0 mm 1 mps 684 mmHg 65%
    03:00 +16°C° 0 mm 1 mps 684 mmHg 66%
    04:00 +15°C° 0 mm 0 mps 684 mmHg 68%
    05:00 +15°C° 0 mm 0 mps 684 mmHg 64%
    06:00 +15°C° 0 mm 0 mps 684 mmHg 61%
    07:00 +16°C° 0 mm 0 mps 684 mmHg 58%
    08:00 +17°C° 0 mm 0 mps 684 mmHg 53%
    09:00 +19°C° 0 mm 0 mps 685 mmHg 48%
    10:00 +20°C° 0 mm 0 mps 686 mmHg 43%
    11:00 +24°C° 0 mm 1 mps 686 mmHg 39%
    12:00 +25°C° 0 mm 3 mps 686 mmHg 35%
    13:00 +27°C° 0 mm 4 mps 686 mmHg 31%
    14:00 +27°C° 0 mm 4 mps 686 mmHg 30%
    15:00 +28°C° 0 mm 4 mps 686 mmHg 29%
    16:00 +28°C° 0 mm 5 mps 686 mmHg 27%
    17:00 +28°C° 0 mm 4 mps 686 mmHg 28%
    18:00 +27°C° 0 mm 4 mps 685 mmHg 29%
    19:00 +27°C° 0 mm 4 mps 685 mmHg 30%
    20:00 +25°C° 0 mm 3 mps 685 mmHg 35%
    21:00 +24°C° 0 mm 2 mps 686 mmHg 39%
    22:00 +23°C° 0 mm 2 mps 686 mmHg 44%
    23:00 +21°C° 0.1 mm 2 mps 685 mmHg 50%

    Tomorrow, 1 June, Monday

    Time Temperature Precipitation Wind Pressure Humidity
    00:00 +21°C° 0.1 mm 1 mps 685 mmHg 56%
    01:00 +20°C° 0.1 mm 1 mps 684 mmHg 63%
    02:00 +19°C° 0.1 mm 2 mps 684 mmHg 65%
    03:00 +19°C° 0.1 mm 2 mps 684 mmHg 67%
    04:00 +19°C° 0.1 mm 2 mps 684 mmHg 69%
    05:00 +19°C° 0 mm 2 mps 684 mmHg 68%
    06:00 +19°C° 0 mm 2 mps 684 mmHg 67%
    07:00 +20°C° 0 mm 1 mps 684 mmHg 66%
    08:00 +22°C° 0.2 mm 1 mps 685 mmHg 60%
    09:00 +24°C° 0.2 mm 1 mps 685 mmHg 54%
    10:00 +25°C° 0.2 mm 1 mps 686 mmHg 48%
    11:00 +26°C° 0.1 mm 2 mps 686 mmHg 45%
    12:00 +27°C° 0.1 mm 2 mps 686 mmHg 42%
    13:00 +29°C° 0.1 mm 3 mps 685 mmHg 38%
    14:00 +29°C° 0.2 mm 3 mps 685 mmHg 39%
    15:00 +29°C° 0.2 mm 3 mps 685 mmHg 39%
    16:00 +29°C° 0.2 mm 4 mps 685 mmHg 40%
    17:00 +27°C° 2.3 mm 3 mps 685 mmHg 48%
    18:00 +25°C° 2.3 mm 3 mps 685 mmHg 55%
    19:00 +22°C° 2.3 mm 3 mps 684 mmHg 63%
    20:00 +23°C° 0.9 mm 2 mps 685 mmHg 66%
    21:00 +21°C° 0.9 mm 2 mps 685 mmHg 69%
    22:00 +22°C° 0.9 mm 1 mps 686 mmHg 72%
    23:00 +22°C° 0 mm 1 mps 686 mmHg 72%

    Day after tomorrow, 2 June, Tuesday

    Time Temperature Precipitation Wind Pressure Humidity
    00:00 +21°C° 0 mm 1 mps 685 mmHg 73%
    01:00 +21°C° 0 mm 1 mps 685 mmHg 74%
    02:00 +20°C° 0 mm 1 mps 685 mmHg 76%
    03:00 +20°C° 0 mm 1 mps 685 mmHg 78%
    04:00 +19°C° 0 mm 1 mps 685 mmHg 79%
    05:00 +20°C° 0 mm 1 mps 685 mmHg 77%
    06:00 +20°C° 0 mm 1 mps 685 mmHg 75%
    07:00 +20°C° 0 mm 1 mps 685 mmHg 73%
    08:00 +22°C° 0 mm 1 mps 686 mmHg 62%
    09:00 +23°C° 0 mm 2 mps 686 mmHg 52%
    10:00 +25°C° 0 mm 3 mps 687 mmHg 42%
    11:00 +26°C° 0 mm 3 mps 686 mmHg 38%
    12:00 +27°C° 0 mm 3 mps 686 mmHg 33%
    13:00 +28°C° 0 mm 3 mps 686 mmHg 29%
    14:00 +29°C° 0 mm 3 mps 686 mmHg 28%
    15:00 +29°C° 0 mm 3 mps 686 mmHg 27%
    16:00 +30°C° 0 mm 3 mps 685 mmHg 26%
    17:00 +29°C° 0 mm 3 mps 685 mmHg 30%
    18:00 +28°C° 0 mm 3 mps 685 mmHg 34%
    19:00 +27°C° 0 mm 3 mps 685 mmHg 38%
    20:00 +27°C° 0 mm 3 mps 685 mmHg 42%
    21:00 +26°C° 0 mm 3 mps 685 mmHg 46%
    22:00 +25°C° 0 mm 3 mps 685 mmHg 50%
    23:00 +24°C° 0 mm 3 mps 684 mmHg 50%

    3 June, Wednesday

    Time Temperature Precipitation Wind Pressure Humidity
    00:00 +22°C° 0 mm 4 mps 684 mmHg 50%
    01:00 +21°C° 0 mm 4 mps 683 mmHg 50%
    02:00 +21°C° 0 mm 4 mps 683 mmHg 50%
    03:00 +21°C° 0 mm 3 mps 683 mmHg 51%
    04:00 +21°C° 0 mm 3 mps 682 mmHg 51%
    05:00 +21°C° 0 mm 4 mps 682 mmHg 51%
    06:00 +21°C° 0 mm 4 mps 682 mmHg 50%
    07:00 +22°C° 0 mm 5 mps 682 mmHg 50%
    08:00 +23°C° 0 mm 5 mps 683 mmHg 46%
    09:00 +26°C° 0 mm 5 mps 683 mmHg 42%
    10:00 +28°C° 0 mm 5 mps 684 mmHg 38%
    11:00 +29°C° 0 mm 5 mps 684 mmHg 35%
    12:00 +30°C° 0 mm 5 mps 684 mmHg 32%
    13:00 +32°C° 0 mm 5 mps 684 mmHg 28%
    14:00 +32°C° 0 mm 5 mps 683 mmHg 29%
    15:00 +32°C° 0 mm 4 mps 683 mmHg 29%
    16:00 +32°C° 0 mm 4 mps 683 mmHg 30%
    17:00 +30°C° 0.2 mm 3 mps 683 mmHg 34%
    18:00 +28°C° 0.2 mm 3 mps 683 mmHg 38%
    19:00 +27°C° 0.2 mm 3 mps 682 mmHg 43%
    20:00 +26°C° 0 mm 2 mps 683 mmHg 46%
    21:00 +26°C° 0 mm 1 mps 683 mmHg 48%
    22:00 +25°C° 0 mm 1 mps 683 mmHg 51%
    23:00 +25°C° 0 mm 1 mps 683 mmHg 52%

    4 June, Thursday

    Time Temperature Precipitation Wind Pressure Humidity
    00:00 +24°C° 0 mm 1 mps 683 mmHg 52%
    01:00 +24°C° 0 mm 1 mps 683 mmHg 53%
    02:00 +23°C° 0 mm 1 mps 682 mmHg 53%
    03:00 +23°C° 0 mm 1 mps 682 mmHg 53%
    04:00 +23°C° 0 mm 1 mps 682 mmHg 53%
    05:00 +24°C° 0 mm 1 mps 683 mmHg 50%
    06:00 +25°C° 0 mm 2 mps 683 mmHg 47%
    07:00 +26°C° 0 mm 2 mps 683 mmHg 43%
    08:00 +28°C° 0 mm 3 mps 684 mmHg 38%
    09:00 +29°C° 0 mm 5 mps 684 mmHg 33%
    10:00 +32°C° 0 mm 6 mps 684 mmHg 28%
    11:00 +33°C° 0 mm 7 mps 684 mmHg 26%
    12:00 +34°C° 0 mm 7 mps 684 mmHg 24%
    13:00 +35°C° 0 mm 8 mps 684 mmHg 23%
    14:00 +35°C° 0 mm 7 mps 684 mmHg 22%
    15:00 +36°C° 0 mm 7 mps 684 mmHg 21%
    16:00 +36°C° 0 mm 7 mps 684 mmHg 20%
    17:00 +35°C° 0 mm 7 mps 684 mmHg 22%
    18:00 +35°C° 0 mm 6 mps 683 mmHg 23%
    19:00 +34°C° 0 mm 5 mps 683 mmHg 25%
    20:00 +33°C° 0 mm 5 mps 683 mmHg 28%
    21:00 +30°C° 0 mm 4 mps 684 mmHg 31%
    22:00 +29°C° 0 mm 4 mps 684 mmHg 34%
    23:00 +29°C° 0 mm 3 mps 684 mmHg 36%

    5 June, Friday

    Time Temperature Precipitation Wind Pressure Humidity
    00:00 +28°C° 0 mm 2 mps 683 mmHg 38%
    01:00 +28°C° 0 mm 1 mps 683 mmHg 40%
    02:00 +27°C° 0 mm 2 mps 683 mmHg 40%
    03:00 +26°C° 0 mm 2 mps 682 mmHg 40%
    04:00 +26°C° 0 mm 3 mps 682 mmHg 40%
    05:00 +26°C° 0 mm 3 mps 682 mmHg 38%
    06:00 +27°C° 0 mm 4 mps 682 mmHg 36%
    07:00 +28°C° 0 mm 4 mps 682 mmHg 34%
    08:00 +30°C° 0 mm 6 mps 682 mmHg 29%
    09:00 +33°C° 0 mm 7 mps 683 mmHg 25%
    10:00 +35°C° 0 mm 9 mps 683 mmHg 21%
    11:00 +37°C° 0 mm 9 mps 683 mmHg 21%
    12:00 +37°C° 0 mm 10 mps 683 mmHg 22%
    13:00 +37°C° 0 mm 10 mps 683 mmHg 22%
    14:00 +38°C° 0 mm 9 mps 682 mmHg 22%
    15:00 +38°C° 0 mm 9 mps 682 mmHg 21%
    16:00 +38°C° 0 mm 8 mps 682 mmHg 20%
    17:00 +37°C° 0 mm 8 mps 682 mmHg 22%
    18:00 +35°C° 0 mm 7 mps 682 mmHg 23%
    19:00 +34°C° 0 mm 6 mps 683 mmHg 25%
    20:00 +32°C° 0 mm 5 mps 683 mmHg 35%
    21:00 +28°C° 0 mm 4 mps 683 mmHg 46%
    22:00 +25°C° 0 mm 3 mps 683 mmHg 56%
    23:00 +24°C° 0 mm 3 mps 683 mmHg 61%
    Show more